St. Joseph, KS

7:41 AM CST on December 13, 2019 (GMT -0600)
Rosecrans Memorial

Weather History for KSTJ - October, 2019

Change the Weather History Date:

Wednesday, October 2, 2019

  Actual Average Record
Temperature  
Mean Temperature 64 °F 60 °F  
Max Temperature 73 °F 73 °F 94 °F (1963)
Min Temperature 55 °F 47 °F 28 °F (2004)
Degree Days  
Heating Degree Days 1 7  
Month to date heating degree days 1 13  
Since 1 July heating degree days 6 93  
Cooling Degree Days 0 2  
Month to date cooling degree days 17 4  
Year to date cooling degree days 1466 1203  
Growing Degree Days 14 (Base 50)    
Moisture  
Dew Point 63 °F    
Average Humidity 90    
Maximum Humidity 100    
Minimum Humidity 80    
Precipitation  
Precipitation 1.29 in 0.10 in 1.83 in (1926)
Month to date precipitation 1.74 0.19  
Year to date precipitation 35.34 29.91  
Sea Level Pressure  
Sea Level Pressure 29.92 in    
Wind  
Wind Speed 7 mph (NNW)    
Max Wind Speed 17 mph    
Max Gust Speed 25 mph    
Visibility 7 miles    
Events Fog , Rain , Thunderstorm    
T = Trace of Precipitation, MM = Missing Value Source: NWS Daily Summary

Daily Weather History Graph

Daily Weather History Graph

Search for Another Location

Airport or City:

Astronomy

Oct. 02, 2019 Rise Set
Actual Time 7:16 AM CDT 7:00 PM CDT
Civil Twilight 6:49 AM CDT 7:27 PM CDT
Nautical Twilight 6:18 AM CDT 7:58 PM CDT
Astronomical Twilight 5:46 AM CDT 8:30 PM CDT
Moon 11:42 AM CDT (10/2) 9:56 PM CDT (10/2)
Length of Visible Light 12h 37m
Length of Day
11h 44m
Waxing Crescent, 20% of the Moon is Illuminated
Oct 2
Waxing Crescent
Oct 5
First Quarter
Oct 13
Full
Oct 21
Last Quarter
Oct 27
New

Hourly Weather History & Observations

Time (CDT) Temp. Dew Point Humidity Pressure Visibility Wind Dir Wind Speed Gust Speed Precip Events Conditions
12:06 AM 72.0 °F 70.0 °F 93% 29.87 in 2.0 mi SSW 12.7 mph 19.6 mph 0.07 in Rain Rain
12:18 AM 72.0 °F 70.0 °F 93% 29.86 in 4.0 mi SSW 11.5 mph - 0.10 in Rain Light Rain
12:35 AM 72.0 °F 70.0 °F 93% 29.87 in 4.0 mi SW 11.5 mph - 0.14 in Rain Rain
12:49 AM 71.6 °F 69.8 °F 94% 29.87 in 2.0 mi SW 10.4 mph - 0.21 in Rain Rain
12:53 AM 72.0 °F 70.0 °F 93% 29.85 in 2.5 mi SW 11.5 mph - 0.21 in Rain Rain
1:13 AM 72.0 °F 70.0 °F 93% 29.88 in 4.0 mi SW 6.9 mph - 0.04 in Rain Light Rain
1:39 AM 72.0 °F 70.0 °F 93% 29.89 in 5.0 mi SW 5.8 mph - 0.07 in Rain Light Rain
1:45 AM 72.0 °F 70.0 °F 93% 29.89 in 2.5 mi WSW 3.5 mph - 0.08 in Rain Rain
1:48 AM 71.6 °F 69.8 °F 94% 29.89 in 3.0 mi Variable 4.6 mph - 0.08 in Rain Light Rain
1:53 AM 70.0 °F 68.0 °F 93% 29.87 in 6.0 mi NNW 9.2 mph - 0.08 in Rain Light Rain
2:15 AM 68.0 °F 66.0 °F 93% 29.91 in 7.0 mi NW 4.6 mph - 0.02 in Rain Light Rain
2:28 AM 68.0 °F 66.0 °F 93% 29.92 in 3.0 mi NW 5.8 mph - 0.05 in Rain Light Rain
2:39 AM 68.0 °F 66.0 °F 93% 29.91 in 5.0 mi North 4.6 mph - 0.06 in Rain Light Rain
2:53 AM 66.9 °F 64.9 °F 93% 29.89 in 10.0 mi NNW 6.9 mph - 0.06 in   Overcast
3:07 AM 66.0 °F 64.0 °F 93% 29.92 in 10.0 mi NW 12.7 mph - N/A   Overcast
3:18 AM 64.9 °F 63.0 °F 93% 29.92 in 10.0 mi NNW 9.2 mph - N/A   Overcast
3:33 AM 64.9 °F 63.0 °F 93% 29.91 in 10.0 mi NW 9.2 mph - 0.01 in Rain Light Rain
3:53 AM 64.0 °F 62.1 °F 93% 29.90 in 10.0 mi NW 10.4 mph - 0.01 in   Overcast
4:24 AM 63.0 °F 61.0 °F 93% 29.93 in 2.0 mi NW 6.9 mph - 0.06 in Rain Rain
4:28 AM 63.0 °F 61.0 °F 93% 29.93 in 3.0 mi NNW 6.9 mph - 0.07 in Rain Light Rain
4:45 AM 63.0 °F 61.0 °F 93% 29.94 in 7.0 mi NW 5.8 mph - 0.07 in Rain Light Rain
4:53 AM 63.0 °F 61.0 °F 93% 29.92 in 4.0 mi WNW 5.8 mph - 0.09 in Rain Rain
4:57 AM 63.0 °F 61.0 °F 93% 29.95 in 4.0 mi WNW 6.9 mph - 0.00 in Rain Light Rain
5:15 AM 62.1 °F 61.0 °F 96% 29.94 in 4.0 mi NNW 8.1 mph - 0.02 in Rain Rain
5:34 AM 62.1 °F 60.1 °F 93% 29.95 in 3.0 mi NNW 8.1 mph - 0.03 in Rain Light Rain
5:51 AM 60.8 °F 60.8 °F 100% 29.95 in 4.0 mi NNW 4.6 mph - 0.05 in Rain Light Rain
5:53 AM 61.0 °F 60.1 °F 97% 29.93 in 4.0 mi NNW 3.5 mph - 0.05 in Rain Light Rain
5:56 AM 62.1 °F 60.1 °F 93% 29.95 in 5.0 mi NNW 5.8 mph - 0.00 in Rain Light Rain
6:22 AM 61.0 °F 59.0 °F 93% 29.95 in 2.5 mi North 5.8 mph - 0.05 in Rain Rain
6:27 AM 61.0 °F 59.0 °F 93% 29.95 in 4.0 mi North 6.9 mph - 0.06 in Rain Light Rain
6:34 AM 61.0 °F 59.0 °F 93% 29.95 in 5.0 mi North 5.8 mph - 0.07 in Rain Light Rain
6:53 AM 61.0 °F 59.0 °F 93% 29.93 in 9.0 mi North 8.1 mph - 0.07 in Rain Light Rain
7:29 AM 61.0 °F 59.0 °F 93% 29.94 in 10.0 mi North 4.6 mph - 0.00 in   Overcast
7:38 AM 61.0 °F 59.0 °F 93% 29.94 in 9.0 mi North 4.6 mph - 0.00 in   Overcast
7:45 AM 61.0 °F 59.0 °F 93% 29.94 in 9.0 mi North 5.8 mph - 0.00 in   Overcast
7:53 AM 61.0 °F 60.1 °F 97% 29.93 in 10.0 mi NNW 4.6 mph - 0.00 in   Overcast
8:03 AM 62.1 °F 60.1 °F 93% 29.95 in 10.0 mi NNW 3.5 mph - N/A   Overcast
8:53 AM 62.1 °F 60.1 °F 93% 29.93 in 10.0 mi North 5.8 mph - N/A   Overcast
9:15 AM 63.0 °F 60.1 °F 90% 29.93 in 10.0 mi NE 4.6 mph - 0.00 in   Overcast
9:53 AM 64.0 °F 61.0 °F 90% 29.91 in 10.0 mi East 5.8 mph - 0.01 in   Overcast
10:53 AM 66.0 °F 63.0 °F 90% 29.90 in 10.0 mi Calm Calm - 0.00 in   Overcast
11:53 AM 68.0 °F 64.0 °F 87% 29.91 in 10.0 mi NW 4.6 mph - N/A   Overcast
12:53 PM 69.1 °F 64.9 °F 87% 29.89 in 10.0 mi Calm Calm - N/A   Overcast
1:53 PM 72.0 °F 66.9 °F 84% 29.88 in 10.0 mi NNW 4.6 mph - N/A   Overcast
2:27 PM 71.1 °F 66.0 °F 84% 29.90 in 10.0 mi NNW 10.4 mph - N/A   Overcast
2:38 PM 70.0 °F 66.0 °F 87% 29.90 in 10.0 mi NNW 8.1 mph - N/A   Overcast
2:53 PM 71.1 °F 66.0 °F 84% 29.88 in 10.0 mi NNW 5.8 mph - N/A   Overcast
3:10 PM 71.1 °F 66.0 °F 84% 29.89 in 10.0 mi Calm Calm - 0.00 in Rain Light Rain
3:53 PM 71.1 °F 66.9 °F 87% 29.87 in 3.0 mi NW 5.8 mph - 0.02 in Rain Light Rain
3:55 PM 71.1 °F 66.9 °F 87% 29.89 in 1.5 mi NW 5.8 mph - 0.02 in Rain Rain
4:10 PM 70.0 °F 68.0 °F 93% 29.88 in 3.0 mi North 4.6 mph - 0.07 in Rain Light Rain
4:24 PM 70.0 °F 68.0 °F 93% 29.89 in 8.0 mi NNW 9.2 mph - 0.07 in Rain Light Rain
4:35 PM 69.1 °F 66.9 °F 93% 29.89 in 9.0 mi North - - 0.07 in   Overcast
4:53 PM 68.0 °F 64.9 °F 90% 29.87 in 9.0 mi NW 10.4 mph - 0.07 in   Overcast
5:03 PM 66.9 °F 64.9 °F 93% 29.89 in 10.0 mi NW 10.4 mph - N/A   Overcast
5:38 PM 66.0 °F 64.0 °F 93% 29.89 in 10.0 mi NW 8.1 mph - 0.02 in Thunderstorm Overcast
5:41 PM 64.9 °F 63.0 °F 93% 29.89 in 10.0 mi NW 8.1 mph - 0.02 in Thunderstorm Thunderstorm
5:50 PM 64.4 °F - N/A% 29.89 in - NW 6.9 mph - 0.02 in Thunderstorm Thunderstorm
5:53 PM 64.9 °F 63.0 °F 93% 29.89 in 0.2 mi WNW 6.9 mph - 0.09 in Fog , Rain , Thunderstorm Heavy Thunderstorms and Rain
6:15 PM 64.0 °F 63.0 °F 96% 29.89 in 0.5 mi NNW 6.9 mph - 0.41 in Fog , Rain Heavy Rain
6:18 PM 64.0 °F 63.0 °F 96% 29.90 in 1.0 mi NNW 5.8 mph - 0.41 in Rain Light Rain
6:23 PM 64.0 °F 63.0 °F 96% 29.90 in 6.0 mi North 4.6 mph - 0.41 in Rain Light Rain
6:28 PM 64.0 °F 62.1 °F 93% 29.90 in 9.0 mi North 6.9 mph - 0.41 in Thunderstorm Thunderstorm
6:32 PM 64.0 °F 62.1 °F 93% 29.91 in 4.0 mi NW 9.2 mph - 0.44 in Rain , Thunderstorm Light Thunderstorms and Rain
6:35 PM 64.0 °F 62.1 °F 93% 29.92 in 1.5 mi NW 8.1 mph - 0.51 in Rain , Thunderstorm Heavy Thunderstorms and Rain
6:38 PM 63.0 °F 62.1 °F 97% 29.91 in 0.5 mi North 9.2 mph - 0.64 in Fog , Rain , Thunderstorm Heavy Thunderstorms and Rain
6:49 PM 62.6 °F 62.6 °F 100% 29.91 in 1.0 mi NW 8.1 mph - 0.75 in Rain , Thunderstorm Heavy Thunderstorms and Rain
6:53 PM 63.0 °F 61.0 °F 93% 29.91 in 2.0 mi NNW 10.4 mph - 0.75 in Rain , Thunderstorm Light Thunderstorms and Rain
6:58 PM 62.1 °F 60.1 °F 93% 29.92 in 6.0 mi NNW 12.7 mph - 0.01 in Rain , Thunderstorm Light Rain
7:14 PM 62.1 °F 60.1 °F 93% 29.92 in 10.0 mi NNW 8.1 mph - 0.01 in   Overcast
7:43 PM 62.1 °F 59.0 °F 90% 29.94 in 10.0 mi NNW 10.4 mph 17.3 mph 0.01 in   Overcast
7:53 PM 61.0 °F 59.0 °F 93% 29.94 in 10.0 mi NNW 9.2 mph - 0.01 in   Overcast
8:07 PM 61.0 °F 57.9 °F 90% 29.96 in 10.0 mi NNW 12.7 mph - N/A   Overcast
8:30 PM 60.1 °F 57.9 °F 93% 29.97 in 10.0 mi NNW 10.4 mph - N/A   Overcast
8:37 PM 60.1 °F 57.9 °F 93% 29.97 in 10.0 mi NNW 10.4 mph - N/A   Overcast
8:53 PM 60.1 °F 57.0 °F 90% 29.97 in 10.0 mi NNW 11.5 mph 19.6 mph N/A   Overcast
9:23 PM 59.0 °F 57.0 °F 93% 30.00 in 10.0 mi NNW 6.9 mph - N/A   Overcast
9:53 PM 59.0 °F 55.9 °F 90% 30.01 in 10.0 mi NNW 12.7 mph - N/A   Overcast
10:06 PM 59.0 °F 55.0 °F 87% 30.03 in 10.0 mi NNW 10.4 mph - N/A   Overcast
10:53 PM 57.0 °F 53.1 °F 87% 30.04 in 10.0 mi NNW 12.7 mph - N/A   Overcast
11:53 PM 57.0 °F 52.0 °F 83% 30.04 in 10.0 mi North 11.5 mph - N/A   Overcast